Regional Weather Roundup
Issued by NWS

Home | Current Version | Previous Version | Graphics & Text | Print | Product List | Glossary On
Versions: 1 2 3 4 5 6 7 8 9 10 11 12 13 14 15 16 17 18 19 20 21 22 23 24 25 26 27 28 29 30 31 32 33 34 35 36 37 38 39 40 41 42 43 44 45 46 47 48 49 50
000
ASUS43 KLOT 281206
RWRIL

ILLINOIS REGIONAL WEATHER ROUNDUP
NATIONAL WEATHER SERVICE CHICAGO/ROMEOVILLE IL
600 AM CST SUN DEC 28 2014

NOTE: "FAIR" INDICATES FEW OR NO CLOUDS BELOW 12,000 FEET WITH NO
SIGNIFICANT WEATHER AND/OR OBSTRUCTIONS TO VISIBILITY.

* THESE STATIONS ARE NOT UNDER NWS QUALITY CONTROL. THEY ALSO MAY NOT
  REPORT WEATHER SUCH AS PRECIPITATION OR FOG.

ILZ001-002-007-009-015-016-024-281300-
NORTHWEST ILLINOIS

CITY           SKY/WX    TMP DP  RH WIND       PRES   REMARKS
MOLINE         PTCLDY    18  14  84 SW5       30.19F WCI  11
6HR MIN TEMP:  18; 6HR MAX TEMP:  24;

STERLING*      CLEAR     19  14  79 W8        30.18S WCI   9
SAVANNA*       CLEAR     20  16  83 W5        30.18S WCI  14
$$

ILZ003-004-008-010-011-017-018-281300-
NORTH CENTRAL ILLINOIS

CITY           SKY/WX    TMP DP  RH WIND       PRES   REMARKS
ROCKFORD       CLEAR     20  14  77 W6        30.18R WCI  12
6HR MIN TEMP:  20; 6HR MAX TEMP:  28;

FREEPORT*      CLEAR     18  14  86 W6        30.17S WCI   9
ROCHELLE*      CLEAR     20  18  91 W7        30.18R WCI  11
DE KALB*       PTCLDY    20  17  90 W8        30.15S WCI  10
PERU*          CLEAR     22  18  84 W7        30.19S WCI  13
$$

ILZ005-006-012>014-019>023-281300-
NORTHEAST ILLINOIS

CITY           SKY/WX    TMP DP  RH WIND       PRES   REMARKS
CHICAGO-OHARE  PTCLDY    23  18  81 W7        30.15R WCI  15
6HR MIN TEMP:  23; 6HR MAX TEMP:  31;

CHICAGO-MIDWAY PTCLDY    27  20  75 W7        30.15R WCI  19
6HR MIN TEMP:  27; 6HR MAX TEMP:  33;

AURORA         PTCLDY    23  18  81 W10       30.17R WCI  12
6HR MIN TEMP:  23; 6HR MAX TEMP:  31;

LANSING*       CLOUDY    28  22  78 W3        30.16S
JOLIET*        CLOUDY    25  20  80 NW6       30.18R WCI  18
WAUKEGAN       CLEAR     23  18  81 VRB5      30.13R WCI  17
6HR MIN TEMP:  23; 6HR MAX TEMP:  30;

DUPAGE AIRPORT PTCLDY    23  18  81 W8        30.15R WCI  14
6HR MIN TEMP:  23; 6HR MAX TEMP:  30;

KANKAKEE*      CLOUDY    27  23  85 W9        30.17S WCI  17
WHEELING       CLEAR     24  18  77 W6        30.16R WCI  17
6HR MIN TEMP:  23; 6HR MAX TEMP:  31;

MORRIS*        PTCLDY    23  20  91 NW7       30.18R WCI  14
ROMEOVILLE*    CLOUDY    25  21  84 W6        30.17R WCI  18
NORTHERLY ISL    N/A     27  20  75 W6          N/A  WCI  21
$$

LMZ740>746-281300-
SOUTHERN LAKE MICHIGAN

STATION/POSITION SKY/WX   TEMP    WIND        PRES    VSBY  WAVE
                          AIR SEA DIR/SP/G                  HT/PER
                          (F)     (DEG/KT/KT) (MB)    (MI)  (FT/S)
WAUKEGAN HARBOR            26     280/  3/ 10   N/A
HARRISON CRIB              26     280/ 11/ 14   N/A
BURNHAM HARBOR             27     270/  5/ 12   N/A
CALUMET HARBOR             27     260/  4/  6 1019.5S
MICHIGAN CITY              31     280/ 10/ 13   N/A
$$

ILZ025>027-034>036-040-047-049-050-058-095>099-281300-
WEST-CENTRAL ILLINOIS

CITY           SKY/WX    TMP DP  RH WIND       PRES   REMARKS
QUINCY         CLOUDY    27  21  78 W6        30.21S WCI  20
GALESBURG*     PTCLDY    20  18  91 W3        30.19F
MACOMB*        MOCLDY    25  21  87 W6        30.22F WCI  18
JACKSONVILLE*  CLOUDY    30  24  77 NW7       30.21S WCI  23
PITTSFIELD*    CLOUDY    29  24  81 NW3       30.22F
$$

ILZ028>032-037-038-041>044-048-051>054-059>061-281300-
CENTRAL ILLINOIS

CITY           SKY/WX    TMP DP  RH WIND       PRES   REMARKS
PONTIAC        CLOUDY    24  22  89 W9        30.19R WCI  15
BLOOMINGTON    MOCLDY    24  19  81 NW13      30.19R WCI  12
DECATUR        CLOUDY    28  23  81 NW10      30.20S WCI  19
PEORIA         PTCLDY    24  18  77 NW5       30.20F WCI  18
6HR MIN TEMP:  24; 6HR MAX TEMP:  30;

LACON*         CLEAR     21  17  83 W6        30.20S WCI  14
LINCOLN*       CLOUDY    28  24  82 NW7       30.21F WCI  21
SPRINGFIELD    CLOUDY    29  22  75 NW6       30.20F WCI  23
6HR MIN TEMP:  29; 6HR MAX TEMP:  32;

TAYLORVILLE    CLOUDY    30  27  86 NW8       30.20S WCI  23
$$

ILZ033-039-045-046-055>057-062-063-281300-
EAST-CENTRAL ILLINOIS

CITY           SKY/WX    TMP DP  RH WIND       PRES   REMARKS
CHAMPAIGN      CLOUDY    28  23  81 NW14      30.18S WCI  17
DANVILLE*      CLOUDY    27  23  84 NW8       30.15S WCI  19
RANTOUL*       CLOUDY    28  24  84 NW8       30.18S WCI  20
MATTOON        CLOUDY    29  25  85 N12       30.18S WCI  19
PARIS*         CLOUDY    30  28  90 NW6       30.19S WCI  24
$$

ILZ079-100>102-281300-
SOUTHWEST ILLINOIS

CITY           SKY/WX    TMP DP  RH WIND       PRES   REMARKS
BELLEVILLE     CLOUDY    32  27  83 NW10      30.20F WCI  24
CAHOKIA*       CLOUDY    33  26  75 N9        30.22S WCI  25
SPARTA*        CLOUDY    32  28  84 NW6       30.21F WCI  26
$$

ILZ064>066-069>071-074>076-080>082-084>086-088>090-092>094-281300-
SOUTH-CENTRAL ILLINOIS

CITY           SKY/WX    TMP DP  RH WIND       PRES   REMARKS
CARBONDALE     CLOUDY    33  27  78 N6        30.20S WCI  28
6HR MIN TEMP:  33; 6HR MAX TEMP:  37;

CAIRO*         CLOUDY    38  33  84 N7        30.19R WCI  33
EFFINGHAM*     CLOUDY    32  25  75 NW9       30.21R WCI  24
MARION         CLOUDY    34  28  80 NW6       30.21S WCI  29
MT. VERNON     CLOUDY    32  25  74 N3        30.19F
CENTRALIA*     CLOUDY    32  27  81 N8        30.20F WCI  25
SALEM*         CLOUDY    33  28  82 N9        30.20S WCI  25
METROPOLIS*    CLOUDY    36  36 100 N9        30.18R WCI  29
$$

ILZ067-068-072-073-078-083-087-091-281300-
SOUTHEAST ILLINOIS

CITY           SKY/WX    TMP DP  RH WIND       PRES   REMARKS
LAWRENCEVILLE  CLOUDY    33  29  85 NW9       30.20R WCI  25
FLORA*         CLOUDY    32  28  85 NW7       30.21R WCI  26
FAIRFIELD*     CLOUDY    33  29  87 N5        30.18S WCI  28
HARRISBURG*    CLOUDY    33  31  92 N8        30.21R WCI  26
ROBINSON*      CLOUDY    32  28  86 NW9       30.20R WCI  24
CARMI*         CLOUDY    35  32  91 NW13      30.18S WCI  26
$$

ABBREVIATIONS USED IN REMARKS
   TC - TEMPERATURE IN CELSIUS
  WCI - WIND CHILL INDEX
   HX - HEAT INDEX
  VSB - VISIBILITY
$$




USA.gov is the U.S. government's official web portal to all federal, state and local government web resources and services.